• MPC Preparation (Info)

  • MPEC 2001-X49 : 2001 XV10

    The following Minor Planet Electronic Circular may be linked-to from your own Web pages, but must not otherwise be redistributed electronically.

    A form allowing access to any MPEC is at the bottom of this page.


    Read MPEC 2001-X48 Read MPEC 2001-X50


    M.P.E.C. 2001-X49                                Issued 2001 Dec. 13, 22:23 UT
    
         The Minor Planet Electronic Circulars contain information on unusual
             minor planets and routine data on comets.  They are published
       on behalf of Commission 20 of the International Astronomical Union by the
              Minor Planet Center, Smithsonian Astrophysical Observatory,
                              Cambridge, MA 02138, U.S.A.
    
                 Prepared using the Tamkin Foundation Computer Network
    
                                  MPC@CFA.HARVARD.EDU
              URL http://cfa-www.harvard.edu/iau/mpc.html  ISSN 1523-6714
    
                                       2001 XV10
    
    Observations:
         K01X10V  C2001 11 11.45117 10 43 51.68 +35 48 40.4          19.4        704
         K01X10V  C2001 11 11.46516 10 43 53.42 +35 48 45.5          18.8        704
         K01X10V  C2001 11 11.47913 10 43 55.15 +35 48 47.7          18.6        704
         K01X10V  C2001 11 11.49313 10 43 56.80 +35 48 52.5          18.7        704
         K01X10V* C2001 12 09.45076 11 24 19.67 +39 19 51.3          18.8        704
         K01X10V  C2001 12 09.46638 11 24 20.40 +39 20 01.7          18.9        704
         K01X10V  C2001 12 09.48160 11 24 21.02 +39 20 10.1          18.8        704
         K01X10V  C2001 12 09.49660 11 24 21.72 +39 20 21.2          19.1        704
         K01X10V  C2001 12 09.51152 11 24 22.52 +39 20 31.3          19.4        704
         K01X10V  C2001 12 10.15086 11 24 53.24 +39 27 27.9          17.9 R      046
         K01X10V  C2001 12 10.15291 11 24 53.30 +39 27 29.0                      046
         K01X10V  C2001 12 10.15431 11 24 53.35 +39 27 30.3                      046
         K01X10V  C2001 12 10.15579 11 24 53.40 +39 27 31.2                      046
         K01X10V 1C2001 12 13.26973 11 27 05.05 +40 02 58.0          19.3 R      950
         K01X10V 1C2001 12 13.27101 11 27 05.10 +40 02 58.5          19.5 R      950
         K01X10V 1C2001 12 13.27229 11 27 05.16 +40 02 59.4          19.4 R      950
         K01X10V  C2001 12 13.42521 11 27 11.16 +40 04 46.3          19.4        704
         K01X10V  C2001 12 13.45602 11 27 12.19 +40 05 09.1          19.5        704
         K01X10V  C2001 12 13.48654 11 27 13.16 +40 05 29.9          19.5        704
    
    Observer details:
    046 Klet.  Observers J. Ticha, M. Tichy.  0.57-m f/5.2 reflector + CCD.
    704 Lincoln Laboratory ETS, New Mexico.  Observers M. Blythe, F. Shelly,
        M. Bezpalko, R. Huber, L. Manguso, S. Adams, J. Piscitelli.  Measurers
        J. Stuart, R. Sayer, J. B. Evans, H. Viggh.  1.0-m f/2.15 reflector + CCD.
    950 La Palma.  Observers T. Grav, M. W. Hansen.  2.5-m Nordic Optical Telescope.
    
    Orbital elements:
    2001 XV10
    Epoch 2001 Nov. 27.0 TT = JDT 2452240.5                 MPC
    M  31.77543              (2000.0)            P               Q
    n   0.30187924     Peri.  341.74600     +0.96090064     -0.19303300
    a   2.2007998      Node    31.56119     +0.27673014     +0.69410256
    e   0.5840488      Incl.   22.28868     -0.00950749     +0.69351272
    P   3.26           H   16.5           G   0.15
    From 19 observations 2001 Nov. 11-Dec. 13.
    
    Ephemeris:
    2001 XV10                a,e,i = 2.20, 0.58, 22                  q = 0.9154
    Date    TT    R. A. (2000) Decl.     Delta      r     Elong.  Phase     V
    2001 12 07    11 22.16   +38 54.1    1.193    1.661    98.9    35.9    19.5
    2001 12 17    11 29.03   +40 48.4    1.181    1.742   106.7    32.8    19.4
    2001 12 27    11 30.34   +43 04.1    1.172    1.821   115.0    29.3    19.4
    2002 01 06    11 25.36   +45 31.7    1.169    1.898   123.5    25.6    19.4
    2002 01 16    11 13.61   +47 54.8    1.179    1.973   131.4    21.9    19.4
    2002 01 26    10 55.52   +49 50.8    1.206    2.047   137.9    18.8    19.4
    2002 02 05    10 33.10   +50 58.7    1.255    2.118   141.6    16.8    19.5
    2002 02 15    10 09.65   +51 07.0    1.325    2.187   141.6    16.3    19.7
    2002 02 25    09 48.76   +50 18.1    1.419    2.254   138.0    17.1    19.9
    2002 03 07    09 32.73   +48 46.1    1.534    2.319   132.1    18.5    20.2
    2002 03 17    09 22.26   +46 47.1    1.668    2.382   125.0    20.0    20.5
    2002 03 27    09 16.96   +44 34.7    1.817    2.443   117.5    21.2    20.8
    2002 04 06    09 15.95   +42 18.1    1.978    2.502   109.9    22.1    21.0
    2002 04 16    09 18.31   +40 02.1    2.148    2.559   102.4    22.5    21.3
    2002 04 26    09 23.26   +37 49.3    2.324    2.614    95.2    22.5    21.5
    2002 05 06    09 30.12   +35 40.6    2.502    2.667    88.1    22.2    21.7
    2002 05 16    09 38.43   +33 36.0    2.682    2.718    81.2    21.6    21.9
    2002 05 26    09 47.81   +31 35.0    2.859    2.767    74.6    20.7    22.0
    
    Timothy B. Spahr             (C) Copyright 2001 MPC           M.P.E.C. 2001-X49
    

    Read MPEC 2001-X48 Read MPEC 2001-X50


    MPEC number:

    Enter an MPEC number in one of the following forms:

    • 1997-B01 (the full form)
    • J97B01 (the packed version of the full form)
    • B01 (the abbreviated form)